User: anonymous   Login
Location: ??????
(30.5519°N, 47.7720°E)
Time: 20:26:41
(UTC+00:00)
Language:

Aureole 3 Rocket - Orbit

View from above orbital plane
View from above orbital plane
View from above satellite
View from above satellite

Ground track
Ground track

The orbit data is extracted from the following two-line orbital elements,

1 12849U 81094B   21126.63310111  .00000217  00000-0  17849-4 0  9997
2 12849  82.4908 156.8769 0900017 196.3056 160.7309 13.50831644933530
Epoch (UTC): 06 May 2021 15:11:39
Eccentricity: 0.0900017
inclination: 82.4908°
perigee height: 399 km
apogee height: 1739 km
right ascension of ascending node: 156.8769°
argument of perigee: 196.3056°
revolutions per day: 13.50831644
mean anomaly at epoch: 160.7309°
orbit number at epoch: 93353

The dashed part of the orbit path shows where the satellite is in the earth's shadow,  

DLR